Mitchell, SD

9:41 AM CDT on May 29, 2017 (GMT -0500)
Mitchell Municipal

Weather History for KMHE - February, 2013

Change the Weather History Date:

Thursday, February 21, 2013

  Actual Average Record
Temperature  
Mean Temperature 19 °F 26 °F  
Max Temperature 23 °F 35 °F 72 °F (2000)
Min Temperature 14 °F 16 °F -22 °F (1918)
Degree Days  
Heating Degree Days 46 39  
Month to date heating degree days 861 889  
Since 1 July heating degree days 5142 5256  
Cooling Degree Days 0 0  
Month to date cooling degree days 0 0  
Year to date cooling degree days 0 0  
Moisture  
Dew Point 12 °F    
Average Humidity 75    
Maximum Humidity 88    
Minimum Humidity 62    
Precipitation  
Precipitation 0.23 in 0.02 in 0.55 in (1913)
Month to date precipitation 1.30 0.26  
Year to date precipitation 1.52 0.48  
Snow  
Snow 2.90 in - 10.00 in (1913)
Month to date snowfall 14.0  
Since 1 July snowfall 27.2  
Snow Depth 6.00 in    
Sea Level Pressure  
Sea Level Pressure 30.16 in    
Wind  
Wind Speed 12 mph (ENE)    
Max Wind Speed 20 mph    
Max Gust Speed 23 mph    
Visibility 6 miles    
Events Snow    
T = Trace of Precipitation, MM = Missing Value Source: NWS Daily Summary

Daily Weather History Graph

Daily Weather History Graph

Search for Another Location

Airport or City:

Trip Planner

Search our weather history database for the weather conditions in past years. The results will help you decide how hot, cold, wet, or windy it might be!

Date:

Astronomy

Feb. 21, 2013 Rise Set
Actual Time 7:21 AM CST 6:10 PM CST
Civil Twilight 6:52 AM CST 6:39 PM CST
Nautical Twilight 6:18 AM CST 7:13 PM CST
Astronomical Twilight 5:45 AM CST 7:46 PM CST
Moon 2:21 PM CST (2/21) 4:32 AM CST (2/21)
Length of Visible Light 11h 47m
Length of Day
10h 49m
Waxing Gibbous, 84% of the Moon is Illuminated
Feb 21
Waxing Gibbous
Feb 25
Full
Mar 4
Last Quarter
Mar 11
New
Mar 19
First Quarter

Hourly Weather History & Observations

Time (CST) Temp. Windchill Dew Point Humidity Pressure Visibility Wind Dir Wind Speed Gust Speed Precip Events Conditions
12:53 AM 19.0 °F 4.5 °F 8.1 °F 62% 30.31 in 10.0 mi SE 16.1 mph - N/A   Overcast
1:53 AM 18.0 °F 5.4 °F 9.0 °F 68% 30.30 in 10.0 mi ESE 11.5 mph - N/A   Overcast
2:53 AM 17.1 °F 3.6 °F 9.0 °F 71% 30.27 in 10.0 mi ESE 12.7 mph - N/A   Mostly Cloudy
4:53 AM 15.1 °F 2.5 °F 8.1 °F 74% 30.22 in 10.0 mi ESE 10.4 mph - N/A   Mostly Cloudy
5:53 AM 16.0 °F 2.9 °F 9.0 °F 74% 30.26 in 10.0 mi ESE 11.5 mph - N/A   Overcast
6:53 AM 17.1 °F 5.0 °F 10.0 °F 74% 30.26 in 10.0 mi ESE 10.4 mph - N/A   Overcast
7:53 AM 17.1 °F 5.0 °F 10.9 °F 77% 30.25 in 10.0 mi East 10.4 mph - N/A   Overcast
8:53 AM 17.1 °F 3.0 °F 10.9 °F 77% 30.26 in 10.0 mi East 13.8 mph - N/A   Overcast
9:53 AM 17.1 °F 3.6 °F 10.0 °F 74% 30.27 in 10.0 mi ESE 12.7 mph - N/A   Overcast
10:53 AM 19.0 °F 5.6 °F 10.9 °F 71% 30.27 in 10.0 mi ESE 13.8 mph - N/A   Overcast
11:53 AM 19.9 °F 8.6 °F 12.0 °F 71% 30.26 in 10.0 mi East 10.4 mph - N/A   Overcast
12:53 PM 21.0 °F 10.6 °F 12.9 °F 71% 30.22 in 10.0 mi East 9.2 mph - N/A   Overcast
1:53 PM 21.9 °F 11.7 °F 12.9 °F 68% 30.18 in 10.0 mi East 9.2 mph - N/A   Overcast
2:53 PM 21.9 °F 9.2 °F 12.9 °F 68% 30.16 in 10.0 mi ENE 13.8 mph - N/A   Overcast
3:53 PM 21.9 °F 8.7 °F 12.9 °F 68% 30.17 in 10.0 mi ENE 15.0 mph - N/A   Overcast
4:53 PM 21.9 °F 8.2 °F 12.9 °F 68% 30.16 in 10.0 mi East 16.1 mph - N/A   Overcast
5:53 PM 19.9 °F 7.3 °F 14.0 °F 78% 30.15 in 2.0 mi East 12.7 mph - 0.00 in Snow Light Snow
6:00 PM 19.4 °F 7.2 °F 15.8 °F 86% 30.08 in 1.8 mi East 11.5 mph - 0.00 in Snow Light Snow
6:29 PM 19.4 °F 7.2 °F 15.8 °F 86% 30.08 in 1.2 mi ENE 11.5 mph - 0.00 in Snow Light Snow
6:53 PM 18.0 °F 5.4 °F 14.0 °F 84% 30.14 in 1.5 mi ENE 11.5 mph - 0.00 in Snow Light Snow
7:53 PM 17.1 °F 5.0 °F 14.0 °F 88% 30.14 in 1.2 mi NE 10.4 mph - 0.00 in Snow Light Snow
9:17 PM 17.6 °F 5.7 °F 12.2 °F 79% 30.08 in 1.8 mi NE 10.4 mph - 0.00 in Snow Light Snow
9:39 PM 17.6 °F 5.7 °F 12.2 °F 79% 30.07 in 1.2 mi ENE 10.4 mph - 0.00 in Snow Light Snow
9:53 PM 16.0 °F 2.3 °F 12.9 °F 88% 30.14 in 1.2 mi NE 12.7 mph - 0.00 in Snow Light Snow
10:19 PM 15.8 °F 2.7 °F 12.2 °F 86% 30.06 in 2.0 mi ENE 11.5 mph - 0.00 in Snow Light Snow
10:31 PM 15.8 °F 5.1 °F 12.2 °F 86% 30.05 in 1.8 mi NE 8.1 mph - 0.00 in Snow Light Snow
10:53 PM 16.0 °F 4.4 °F 12.9 °F 88% 30.11 in 1.5 mi NE 9.2 mph - 0.00 in Snow Light Snow
11:07 PM 15.8 °F 5.1 °F 12.2 °F 86% 30.04 in 2.0 mi NNE 8.1 mph - 0.00 in Snow Light Snow
11:29 PM 15.8 °F 5.1 °F 12.2 °F 86% 30.03 in 3.0 mi NNE 8.1 mph - 0.00 in Snow Light Snow
11:45 PM 15.8 °F 5.1 °F 12.2 °F 86% 30.03 in 2.5 mi North 8.1 mph - 0.00 in Snow Light Snow
11:53 PM 16.0 °F 6.3 °F 12.0 °F 84% 30.09 in 3.0 mi North 6.9 mph - 0.00 in Snow Light Snow